全球卫星定位系统 GPS 24星 (NAVSTAR 24 (USA 79))

导读

NAVSTAR 24(USA 79)是美国于1992年2月23日发射的GPS导航卫星,隶属于NAVSTAR全球定位系统。该卫星运行在约2万公里的中地球轨道,为全球提供精准的定位、导航与授时服务,帮助提升GPS星座的覆盖范围与服务稳定性,在民用导航、军事定位等领域发挥了重要作用,是美国第二代GPS卫星组网过程中的重要组成部分。

基本信息
目录编号:
21890
目录名称:
NAVSTAR 24 (USA 79)
国际标识:
1992-009A
轨道中心:
EARTH
卫星名称:
GPS 24星
卫星全名:
全球卫星定位系统 GPS 24星 (NAVSTAR 24 (USA 79))
卫星状态:
在轨 (已飞行12528 天)
发射日期:
1992-02-23 UTC
国别 :
美国 (US)
星等 :
--
轨道信息
数据来源 国际轨道数据 AOE轨道数据
星历时间 2026-06-12T07:49:58+0800
18小时前
查看轨道信息
2026-06-12T02:00:00+0800
1天前
查看轨道信息
半长轴 27360.651km 27360.613km
偏心率 0.0052508 0.0052366
轨道倾角 54.226° 54.225°
近地点辐角 60.534° 60.394°
升交点赤经 166.405° 166.414°
平近点角 95.769° 288.071°
近地点 20838.848km 20839.199km
远地点 21126.18km 21125.753km
周期 750.671分钟 750.669分钟
每日圈数 1.918285 1.918289
详细信息
平衡模式:
三轴稳定
覆盖范围:
全球
运营商:
美国太空军
运营商所在国:
美国
制造商(研发单位):
罗克韦尔自动化公司
制造商所在国:
美国
使用方式:
暂无
卫星简介
全球定位系统(英语:Global Positioning System,通常简称GPS),又称全球卫星定位系统,是美国国防部研制,美国太空军运营与维护的中地球轨道卫星导航系统。它可以为地球表面约98%的地区提供准确的定位、测速和高精度的标准时间。全球定位系统可满足位于全球地面任何一处或近地空间的军事用户连续且精确地确定三维位置、三维运动和时间的需求。该系统包括太空中的31颗GPS人造卫星.该卫星已退役。
2D轨道图
3D轨道图
轨道高度分析图
轨道倾角分析图
轨道综合分析图
查看轨道综合分析图